Terug naar catalogus

ONEWEB-0552

ActiefCommunicatiePO
NORAD 56054·PAYLOAD·🇬🇧 United Kingdom

Gelanceerd Mar 26, 2023 vanaf Satish Dhawan Space Centre

Loading…

Volgende Passages (komende 24 uur)

TLE

VersSource: CelesTrak SupGP

Epoch: Sep 15, 2026, 04:10 UTC

1 56054C 23043J   26258.17411296  .00000142  00000+0  34331-3 0  2587
2 56054  87.9271 226.0676 0002231  78.1842  31.4683 13.21823065    10

Volg ONEWEB-0552 in realtime met AllMySat

Download on the App Store